Location: Strohbehn Observatory
(42.4649°N, 93.8239°W)
Time: 16:05:21
(UTC-05:00)

Daily predictions for brighter satellites

Satellite Brightness Start Highest point End
(mag) Time Altitude Azimuth Time Altitude Azimuth Time Altitude Azimuth
Cosmos 1452 Rocket 3.8 21:22:07 10° NNW 21:27:24 75° WSW 21:32:40 10° SSE
Cosmos 1420 Rocket 4.1 21:22:36 10° NNW 21:27:48 84° WSW 21:32:59 10° SSE
Cosmos 1953 Rocket 4.0 21:25:39 10° SSE 21:29:44 41° E 21:33:52 10° NNE
Meteor 1-24 Rocket 4.3 21:25:56 10° SSE 21:31:37 46° E 21:37:20 10° NNE
USA 186 4.0 21:31:33 10° SSW 21:34:11 23° W 21:36:42 10° NW
Cosmos 1758 Rocket 3.7 21:30:38 10° S 21:35:00 59° E 21:39:21 10° NNE
Resurs 01 Rocket 2.7 21:38:32 10° S 21:42:46 46° W 21:47:03 10° NNW
OAO 3 Rocket 4.0 21:39:28 10° WSW 21:43:58 35° S 21:48:26 10° ESE
Cosmos 2263 Rocket 4.0 21:41:02 10° SW 21:46:16 37° WNW 21:51:30 10° N
Cosmos 1908 4.3 21:43:50 10° NNE 21:47:17 30° ENE 21:50:27 12° SE
SL-8 R/B 3.8 21:44:24 10° SW 21:49:07 58° SE 21:53:52 10° ENE
Meteor 2-5 Rocket 3.9 21:43:33 10° S 21:49:31 86° W 21:55:27 10° N
GENESIS II 4.4 21:48:06 10° SW 21:51:59 75° NW 21:55:56 10° NNE
ATLAS 3B R/B 3.4 21:46:09 10° NNW 21:52:28 43° NE 21:58:38 10° ESE
USA 238 DEB 4.1 21:47:10 10° NNW 21:54:13 58° NE 22:00:55 12° SE
USA 238 4.2 21:47:17 10° NNW 21:54:19 58° NE 22:01:00 12° SE
H-2A R/B 2.2 21:50:17 10° SSE 21:55:30 65° ENE 22:00:52 10° N
Cosmos 724 4.5 21:50:31 10° NNW 21:56:32 69° NE 22:02:04 13° SE
Cosmos 921 Rocket 3.4 21:53:09 10° N 21:57:33 52° ENE 22:01:23 13° SE
Cosmos 1340 4.1 21:54:43 10° NNE 21:57:51 24° ENE 22:00:19 13° ESE
Cosmos 1331 Rocket 4.5 21:53:36 10° N 21:58:38 47° ENE 22:03:01 14° SE
Cosmos 1825 Rocket 4.1 21:55:24 10° SSW 21:59:49 63° W 22:04:16 10° N
SPOT 5 3.9 21:57:07 12° SE 22:01:18 35° ENE 22:06:05 10° N
Cosmos 1269 Rocket 4.0 21:56:10 10° SSW 22:01:29 87° ESE 22:06:49 10° NNE
In-Cosmos 22 4.3 21:56:13 10° S 22:01:45 87° W 22:07:28 10° N
Cosmos 1238 Rocket 2.1 21:59:25 10° S 22:02:20 85° W 22:05:24 10° N
Cosmos 494 Rocket 4.2 21:58:14 10° S 22:03:17 52° ESE 22:08:24 10° NNE
Lacrosse 5 2.4 22:01:53 10° WSW 22:06:55 65° NW 22:11:57 10° NE
MetOp-B 4.1 22:04:42 10° SSE 22:10:03 87° ENE 22:15:27 10° NNW
Cosmos 1674 2.7 22:08:07 10° S 22:11:52 62° E 22:15:40 10° NNE
SL-08 RB Rocket 3.8 22:07:31 11° SSE 22:12:00 89° ENE 22:16:42 10° NNW
Cosmos 1300 4.4 22:11:56 10° NNE 22:14:51 20° ENE 22:16:38 15° ESE
Cosmos 1461 4.3 22:12:25 15° SSE 22:15:07 24° ESE 22:18:57 10° ENE
DMSP B5D2-2 4.2 22:13:56 10° NNE 22:19:05 54° E 22:23:59 11° S
ATLAS 2AS CENTAUR R/B 3.1 22:13:52 10° SW 22:21:42 87° NW 22:29:54 10° NE
Cosmos 1315 Rocket 4.5 22:20:56 10° SW 22:24:40 35° WNW 22:28:29 10° N
Cosmos 220 Rocket 4.3 22:22:19 15° S 22:25:33 44° ESE 22:29:34 10° NNE
Cosmos 1726 2.2 22:22:38 10° N 22:26:22 63° E 22:28:38 22° SSE
Meteor 2-10 4.3 22:20:59 10° N 22:26:22 62° ENE 22:30:26 19° SSE
IGS 5A 4.5 22:26:14 19° ESE 22:28:28 32° ENE 22:32:11 10° N
ERS-1 Rocket 3.0 22:26:46 15° SSE 22:30:55 82° WSW 22:36:00 10° NNW
Cosmos 2251 Rocket 3.7 22:31:27 14° S 22:35:56 51° ESE 22:41:05 10° NNE
Cosmos 2278 Rocket 2.5 22:34:38 15° S 22:38:57 45° ESE 22:44:20 10° NE
Landsat 7 3.9 22:38:06 23° SSE 22:40:59 63° ENE 22:45:43 10° N
Cosmos-2242 4.1 22:36:54 10° NNW 22:41:03 41° W 22:45:05 11° SSW
Meteor 1-21 Rocket 4.4 22:36:38 16° S 22:41:13 60° E 22:46:55 10° NNE
S3M 4.0 22:35:14 11° S 22:41:18 79° E 22:47:43 10° N
ARGOS 4.2 22:37:08 10° SSW 22:42:13 40° W 22:47:20 10° NNW
CZ-2C R/B 3.9 22:44:39 22° SE 22:48:07 46° ENE 22:53:34 10° N
Meteor 1-29 3.6 22:46:09 10° NNE 22:49:18 35° E 22:49:47 33° ESE
COSMOS 2406 3.4 22:48:05 10° NNW 22:53:49 68° WSW 22:57:26 23° S
SL-14 R/B 3.2 22:53:38 32° SSE 22:55:18 65° E 22:59:13 10° NNE
Cosmos 1842 Rocket 3.5 22:51:57 10° N 22:56:19 81° W 22:58:38 27° S
NOSS 2-2 (E) 3.9 22:57:04 34° SE 22:57:30 35° ESE 23:01:25 10° NE
Helios 1A 3.1 22:55:30 26° S 22:57:46 70° WSW 23:01:59 10° NNW
Cosmos 1844 Rocket 3.9 22:52:55 10° SW 22:58:18 43° WNW 23:03:41 10° NNE
NOSS 3-4 (A) 3.5 22:53:03 10° SSW 22:59:03 58° ESE 23:05:18 10° NE
NOSS 3-4 (C) 3.5 22:53:09 10° SSW 22:59:07 58° ESE 23:05:23 10° NE
Terra 1.9 22:58:07 30° SE 23:00:24 64° ENE 23:05:07 10° N
CENTAUR R/B 3.9 22:52:58 10° NNW 23:00:25 44° NE 23:07:12 15° ESE
Helios 1B rocket 2.3 22:58:40 10° NNE 23:02:48 79° ESE 23:04:49 29° S
Cosmos 1553 Rocket 4.4 22:58:38 10° SSW 23:04:36 60° W 23:10:37 10° N
APEX 3.4 23:13:50 10° NW 23:16:56 51° WSW 23:17:43 42° SSW
ATLAS 5 CENTAUR R/B 1.8 23:15:45 38° S 23:17:04 51° ESE 23:21:46 10° NE
Cosmos 883 Rocket 4.4 23:15:48 24° S 23:19:43 86° E 23:26:00 10° N
Cosmos 1703 4.3 23:21:50 30° E 23:21:53 30° E 23:25:19 10° NNE
Cosmos 2297 4.3 23:20:41 33° SE 23:22:07 38° ESE 23:27:22 10° NE
Cosmos 2315 Rocket 4.0 23:19:30 29° S 23:22:52 70° E 23:29:12 10° NNE
Okean 3 Rocket 3.6 23:23:50 45° SSE 23:24:54 60° E 23:29:13 10° NNE
Cosmos 2082 Rocket 2.7 23:20:58 10° NNW 23:26:34 51° ENE 23:29:05 30° ESE
OAO 3 Rocket 4.4 23:22:48 10° WSW 23:26:27 26° SSW 23:26:27 26° SSW
Spot 4 4.5 23:25:19 33° ESE 23:26:57 45° ENE 23:31:35 10° N
NOSS 2-2 (D) 3.3 23:27:29 54° SSE 23:28:04 61° ESE 23:32:18 10° NE
Cosmos 1626 2.0 23:27:30 59° S 23:28:09 83° E 23:31:54 10° N
Cosmos 1833 Rocket 2.9 23:23:48 10° NNW 23:29:22 61° ENE 23:31:41 34° SE
Cosmos 2221 2.7 23:26:21 10° NNW 23:30:39 65° W 23:32:03 40° SSW
H-2A R/B 4.4 23:32:05 10° SW 23:35:23 17° W 23:38:45 10° NW
SL-27 R/B 3.2 23:32:12 10° N 23:35:40 41° ENE 23:35:56 40° E
CZ-2C R/B 2.6 23:32:21 10° NNE 23:37:47 74° ESE 23:39:51 38° S
SPOT 5 4.5 23:36:21 17° SW 23:39:22 30° W 23:43:57 10° NW
BREEZE-M R/B 4.3 23:35:03 10° WNW 23:41:19 72° NNE 23:46:06 18° ESE
EO 1 Delta rocket 4.4 23:36:14 10° NNE 23:42:58 73° E 23:45:05 39° S
ATLAS 3B R/B 3.3 23:36:59 10° NW 23:43:06 41° WSW 23:45:53 28° SSW
RESURS DK-1 2.4 23:44:08 55° ESE 23:44:09 55° ESE 23:48:12 10° NE
Cosmos 1455 2.4 23:45:54 10° N 23:49:38 55° E 23:49:42 55° E
Cosmos 1300 4.3 23:47:17 10° NNW 23:50:30 26° W 23:51:37 22° WSW
Cosmos 1461 4.3 23:49:36 10° WSW 23:54:02 43° NW 23:58:37 10° NNE
NOSS 2-2 (C) 3.5 23:52:53 40° SW 23:54:10 72° NW 23:58:32 10° NNE
